TimeEDT,TemperatureF,Dew PointF,Humidity,Sea Level PressureIn,VisibilityMPH,Wind Direction,Wind SpeedMPH,Gust SpeedMPH,PrecipitationIn,Events,Conditions,WindDirDegrees,DateUTC
12:52 AM,66.0,64.9,96,30.16,2.0,Calm,Calm,-,0.02,Rain,Light Rain,0,2013-08-18 04:52:00
1:52 AM,64.9,64.9,100,30.16,2.0,NNW,3.5,-,0.01,,Overcast,330,2013-08-18 05:52:00
2:52 AM,64.9,64.9,100,30.16,2.0,Calm,Calm,-,N/A,,Overcast,0,2013-08-18 06:52:00
3:27 AM,64.4,64.4,100,30.17,2.0,Calm,Calm,-,0.01,Rain,Light Rain,0,2013-08-18 07:27:00
3:44 AM,64.4,64.4,100,30.17,2.0,NNW,3.5,-,0.01,,Overcast,340,2013-08-18 07:44:00
3:52 AM,64.9,64.9,100,30.16,2.0,NW,3.5,-,0.01,,Overcast,320,2013-08-18 07:52:00
4:52 AM,64.9,64.9,100,30.16,2.0,Calm,Calm,-,N/A,,Overcast,0,2013-08-18 08:52:00
5:20 AM,64.4,64.4,100,30.17,2.0,Calm,Calm,-,N/A,,Overcast,0,2013-08-18 09:20:00
5:52 AM,64.9,64.9,100,30.17,2.0,Calm,Calm,-,0.00,,Overcast,0,2013-08-18 09:52:00
6:52 AM,64.9,64.9,100,30.18,2.0,NNW,5.8,-,N/A,,Overcast,330,2013-08-18 10:52:00
7:10 AM,64.4,64.4,100,30.20,2.0,NNW,3.5,-,N/A,,Overcast,330,2013-08-18 11:10:00
7:31 AM,64.4,64.4,100,30.20,2.0,NW,3.5,-,0.00,,Light Drizzle,320,2013-08-18 11:31:00
7:52 AM,66.0,64.9,96,30.19,2.0,Calm,Calm,-,0.00,,Overcast,0,2013-08-18 11:52:00
8:06 AM,66.2,64.4,94,30.21,2.0,Calm,Calm,-,N/A,,Overcast,0,2013-08-18 12:06:00
8:52 AM,66.9,66.0,97,30.20,2.0,NNW,3.5,-,N/A,,Overcast,330,2013-08-18 12:52:00
9:52 AM,70.0,66.9,90,30.21,10.0,Calm,Calm,-,N/A,,Mostly Cloudy,0,2013-08-18 13:52:00
10:13 AM,71.6,66.2,83,30.23,10.0,Calm,Calm,-,N/A,,Mostly Cloudy,0,2013-08-18 14:13:00
10:52 AM,73.0,66.9,81,30.23,10.0,Calm,Calm,-,N/A,,Mostly Cloudy,0,2013-08-18 14:52:00
11:52 AM,75.9,68.0,76,30.22,10.0,West,4.6,-,N/A,,Mostly Cloudy,270,2013-08-18 15:52:00
12:14 PM,75.2,68.0,78,30.23,10.0,Calm,Calm,-,N/A,,Mostly Cloudy,0,2013-08-18 16:14:00
12:52 PM,77.0,68.0,74,30.21,10.0,Calm,Calm,-,N/A,,Mostly Cloudy,0,2013-08-18 16:52:00
1:52 PM,80.1,69.1,69,30.19,10.0,Variable,4.6,-,N/A,,Mostly Cloudy,0,2013-08-18 17:52:00
2:52 PM,81.0,69.1,67,30.17,10.0,Variable,3.5,-,N/A,,Mostly Cloudy,0,2013-08-18 18:52:00
3:52 PM,82.9,70.0,65,30.14,10.0,Variable,3.5,-,N/A,,Mostly Cloudy,0,2013-08-18 19:52:00
4:52 PM,81.0,69.1,67,30.14,10.0,Variable,3.5,-,N/A,,Overcast,0,2013-08-18 20:52:00
5:52 PM,80.1,71.1,74,30.15,10.0,North,6.9,-,N/A,,Overcast,360,2013-08-18 21:52:00
6:52 PM,79.0,71.1,77,30.14,10.0,North,3.5,-,N/A,,Overcast,350,2013-08-18 22:52:00
7:52 PM,75.9,71.1,85,30.16,10.0,North,4.6,-,N/A,,Overcast,350,2013-08-18 23:52:00
8:52 PM,77.0,70.0,79,30.16,10.0,NNE,3.5,-,N/A,,Overcast,20,2013-08-19 00:52:00
9:52 PM,75.9,69.1,79,30.18,10.0,Calm,Calm,-,N/A,,Overcast,0,2013-08-19 01:52:00
10:52 PM,75.9,70.0,82,30.18,10.0,East,4.6,-,0.00,,Overcast,80,2013-08-19 02:52:00
11:52 PM,75.0,71.1,87,30.17,10.0,ENE,3.5,-,0.00,,Overcast,70,2013-08-19 03:52:00